Back to catalog

FENGYUN 1C DEB

AlivePO
NORAD 30345·DEBRIS·🇨🇳 China

Launched May 10, 1999 from Taiyuan Satellite Launch Center

Loading…

Next Passes (next 24 hours)

TLE

FreshSource: Space-Track

Epoch: Sep 13, 2026, 04:02 UTC

1 30345U 99025ABG 26256.16820763  .00003419  00000-0  99809-3 0  9999
2 30345  98.9066 333.1703 0017988 149.7452 210.4780 14.44675974 17337

Track FENGYUN 1C DEB in real time with AllMySat

Download on the App Store